Weather History for Noatak, AK

Change the Weather History Date:

Tuesday, July 16, 2013

  Actual Average Record
Temperature  
Mean Temperature 54 °F -  
Max Temperature 57 °F 60 °F 77 °F (2005)
Min Temperature 51 °F 43 °F 30 °F (2003)
Degree Days  
Heating Degree Days 11    
Growing Degree Days 4 (Base 50)    
Moisture  
Dew Point 48 °F    
Average Humidity 85    
Maximum Humidity 94    
Minimum Humidity 76    
Precipitation  
Precipitation 0.10 in - - ()
Sea Level Pressure  
Sea Level Pressure 30.02 in    
Wind  
Wind Speed 8 mph (South)    
Max Wind Speed 13 mph    
Max Gust Speed 17 mph    
Visibility 9 miles    
Events      
Averages and records for this station are not official NWS values.
T = Trace of Precipitation, MM = Missing Value Source: NWS Daily Summary

Daily Weather History Graph

Daily Weather History Graph

Search for Another Location

Airport:

Trip Planner

Search our weather history database for the weather conditions in past years. The results will help you decide how hot, cold, wet, or windy it might be!

Date:

Astronomy

Jul. 16, 2013 Rise Set
Actual Time 3:38 AM AKDT 2:08 AM AKDT
Civil Twilight Sun does not rise Sun does not rise
Nautical Twilight Sun does not rise Sun does not rise
Astronomical Twilight Sun does not rise Sun does not rise
Moon 6:03 PM AKDT (7/16) 12:49 AM AKDT (7/16)
Length of Visible Light 24h 00m
Length of Day
22h 30m
First Quarter, 58% of the Moon is Illuminated
Jul 16
First Quarter
Jul 22
Full
Jul 29
Last Quarter
Aug 6
New
Aug 14
First Quarter

Hourly Weather History & Observations

Time (AKDT) Temp. Dew Point Humidity Pressure Visibility Wind Dir Wind Speed Gust Speed Precip Events Conditions
12:16 AM 57.2 °F 51.8 °F 82% 30.03 in 10.0 mi SSE 9.2 mph - N/A   Overcast
12:36 AM 57.2 °F 51.8 °F 82% 30.03 in 10.0 mi SE 9.2 mph - N/A   Overcast
12:56 AM 57.2 °F 50.0 °F 77% 30.04 in 10.0 mi SSE 11.5 mph - N/A   Overcast
1:16 AM 57.2 °F 50.0 °F 77% 30.03 in 10.0 mi SE 11.5 mph - N/A   Overcast
1:36 AM 55.4 °F 50.0 °F 82% 30.03 in 10.0 mi SE 12.7 mph - N/A   Overcast
1:56 AM 55.4 °F 50.0 °F 82% 30.03 in 10.0 mi SSE 10.4 mph - N/A   Overcast
2:16 AM 55.4 °F 50.0 °F 82% 30.03 in 10.0 mi SSE 12.7 mph 17.3 mph N/A   Overcast
2:36 AM 55.4 °F 50.0 °F 82% 30.03 in 10.0 mi SSE 9.2 mph - N/A   Overcast
2:56 AM 55.4 °F 48.2 °F 77% 30.03 in 10.0 mi SE 11.5 mph - N/A   Overcast
3:16 AM 55.4 °F 50.0 °F 82% 30.03 in 10.0 mi SE 8.1 mph - N/A   Overcast
3:36 AM 55.4 °F 50.0 °F 82% 30.02 in 10.0 mi SE 9.2 mph - N/A   Overcast
3:56 AM 53.6 °F 50.0 °F 88% 30.02 in 10.0 mi SE 9.2 mph - N/A   Overcast
4:16 AM 55.4 °F 50.0 °F 82% 30.02 in 10.0 mi SE 10.4 mph 16.1 mph N/A   Overcast
4:36 AM 55.4 °F 50.0 °F 82% 30.02 in 10.0 mi SSE 9.2 mph - N/A   Overcast
4:56 AM 55.4 °F 50.0 °F 82% 30.02 in 10.0 mi SE 10.4 mph - N/A   Overcast
5:16 AM 53.6 °F 50.0 °F 88% 30.02 in 10.0 mi SSE 8.1 mph - N/A   Mostly Cloudy
5:36 AM 53.6 °F 50.0 °F 88% 30.02 in 10.0 mi SE 8.1 mph - N/A   Overcast
5:56 AM 53.6 °F 50.0 °F 88% 30.01 in 10.0 mi SE 6.9 mph - N/A   Overcast
6:16 AM 53.6 °F 50.0 °F 88% 30.02 in 10.0 mi SE 6.9 mph - N/A   Overcast
6:36 AM 53.6 °F 50.0 °F 88% 30.01 in 10.0 mi SE 5.8 mph - N/A   Overcast
6:56 AM 53.6 °F 50.0 °F 88% 30.01 in 10.0 mi SE 6.9 mph - N/A   Overcast
7:16 AM 53.6 °F 50.0 °F 88% 30.01 in 10.0 mi SSE 4.6 mph - N/A   Overcast
7:36 AM 53.6 °F 50.0 °F 88% 30.01 in 10.0 mi SE 9.2 mph - N/A   Overcast
7:56 AM 53.6 °F 50.0 °F 88% 30.01 in 10.0 mi SE 8.1 mph - N/A   Overcast
8:16 AM 53.6 °F 50.0 °F 88% 30.01 in 10.0 mi SSE 8.1 mph - N/A   Overcast
8:36 AM 53.6 °F 50.0 °F 88% 30.00 in 10.0 mi SE 8.1 mph - N/A   Overcast
8:56 AM 53.6 °F 50.0 °F 88% 30.00 in 10.0 mi SSE 9.2 mph - N/A   Overcast
9:16 AM 53.6 °F 50.0 °F 88% 30.00 in 9.0 mi South 5.8 mph - N/A   Overcast
9:36 AM 53.6 °F 51.8 °F 94% 30.01 in 9.0 mi South 6.9 mph - N/A   Overcast
9:56 AM 53.6 °F 50.0 °F 88% 30.01 in 2.5 mi South 6.9 mph - 0.01 in   Overcast
10:16 AM 53.6 °F 50.0 °F 88% 30.02 in 10.0 mi SSW 9.2 mph - N/A   Mostly Cloudy
10:36 AM 51.8 °F 48.2 °F 88% 30.02 in 9.0 mi SSW 5.8 mph - N/A   Overcast
10:56 AM 53.6 °F 48.2 °F 82% 30.01 in 10.0 mi SSW 4.6 mph - N/A   Overcast
11:16 AM 53.6 °F 48.2 °F 82% 30.01 in 9.0 mi SSW 5.8 mph - N/A   Overcast
11:36 AM 51.8 °F 48.2 °F 88% 30.01 in 10.0 mi SSW 4.6 mph - N/A   Overcast
11:56 AM 51.8 °F 48.2 °F 88% 30.01 in 10.0 mi WSW 3.5 mph - 0.02 in   Overcast
12:16 PM 51.8 °F 48.2 °F 88% 30.01 in 10.0 mi WSW 4.6 mph - 0.02 in   Overcast
12:36 PM 51.8 °F 48.2 °F 88% 30.02 in 7.0 mi WSW 5.8 mph - 0.03 in   Overcast
12:56 PM 51.8 °F 48.2 °F 88% 30.02 in 3.0 mi WSW 5.8 mph - 0.04 in   Overcast
1:16 PM 51.8 °F 48.2 °F 88% 30.02 in 2.5 mi West 8.1 mph - 0.01 in   Overcast
1:36 PM 51.8 °F 48.2 °F 88% 30.02 in 4.0 mi West 9.2 mph - 0.01 in   Overcast
1:56 PM 51.8 °F 48.2 °F 88% 30.02 in 2.5 mi West 6.9 mph - 0.02 in   Overcast
2:16 PM 51.8 °F 46.4 °F 82% 30.02 in 9.0 mi West 8.1 mph - N/A   Overcast
2:36 PM 51.8 °F 46.4 °F 82% 30.02 in 7.0 mi West 6.9 mph - N/A   Mostly Cloudy
2:56 PM 51.8 °F 46.4 °F 82% 30.03 in 8.0 mi WSW 6.9 mph - N/A   Mostly Cloudy
3:16 PM 51.8 °F 46.4 °F 82% 30.03 in 10.0 mi WSW 3.5 mph - N/A   Overcast
3:36 PM 51.8 °F 46.4 °F 82% 30.03 in 3.0 mi SSW 4.6 mph - N/A   Overcast
3:56 PM 51.8 °F 46.4 °F 82% 30.03 in 10.0 mi SW 4.6 mph - N/A   Overcast
4:16 PM 51.8 °F 46.4 °F 82% 30.04 in 10.0 mi SW 5.8 mph - N/A   Overcast
4:36 PM 51.8 °F 46.4 °F 82% 30.03 in 10.0 mi WSW 6.9 mph - N/A   Overcast
4:56 PM 51.8 °F 46.4 °F 82% 30.04 in 10.0 mi SW 5.8 mph - N/A   Overcast
5:16 PM 51.8 °F 44.6 °F 76% 30.04 in 10.0 mi SSW 5.8 mph - N/A   Overcast
5:36 PM 51.8 °F 46.4 °F 82% 30.04 in 10.0 mi WSW 6.9 mph - N/A   Overcast
5:56 PM 51.8 °F 46.4 °F 82% 30.04 in 10.0 mi SSW 4.6 mph - 0.01 in   Overcast
6:16 PM 51.8 °F 46.4 °F 82% 30.04 in 10.0 mi SW 5.8 mph - N/A   Overcast
6:36 PM 51.8 °F 46.4 °F 82% 30.04 in 4.0 mi South 5.8 mph - N/A   Overcast
6:56 PM 51.8 °F 46.4 °F 82% 30.03 in 10.0 mi South 4.6 mph - N/A   Overcast
7:16 PM 51.8 °F 46.4 °F 82% 30.03 in 10.0 mi SSE 4.6 mph - N/A   Overcast
7:36 PM 51.8 °F 46.4 °F 82% 30.03 in 10.0 mi SSE 4.6 mph - N/A   Overcast
7:56 PM 51.8 °F 46.4 °F 82% 30.03 in 10.0 mi SSE 5.8 mph - N/A   Overcast
8:16 PM 51.8 °F 46.4 °F 82% 30.03 in 10.0 mi SSE 4.6 mph - N/A   Overcast
8:36 PM 51.8 °F 48.2 °F 88% 30.03 in 10.0 mi SSE 6.9 mph - N/A   Overcast
8:56 PM 51.8 °F 48.2 °F 88% 30.03 in 5.0 mi SE 6.9 mph - N/A   Overcast
9:16 PM 51.8 °F 48.2 °F 88% 30.03 in 10.0 mi SSE 5.8 mph - N/A   Overcast
9:36 PM 51.8 °F 48.2 °F 88% 30.03 in 10.0 mi SSE 9.2 mph - N/A   Overcast
9:56 PM 51.8 °F 48.2 °F 88% 30.03 in 10.0 mi SSE 8.1 mph - N/A   Overcast
10:16 PM 51.8 °F 46.4 °F 82% 30.02 in 10.0 mi SSE 9.2 mph - N/A   Overcast
10:36 PM 51.8 °F 46.4 °F 82% 30.02 in 10.0 mi SSE 8.1 mph - N/A   Overcast
10:56 PM 51.8 °F 46.4 °F 82% 30.02 in 9.0 mi SSE 8.1 mph - N/A   Overcast
11:16 PM 51.8 °F 48.2 °F 88% 30.02 in 10.0 mi SSE 6.9 mph - N/A   Overcast
11:36 PM 51.8 °F 48.2 °F 88% 30.02 in 10.0 mi SSE 9.2 mph - N/A   Overcast
11:56 PM 51.8 °F 48.2 °F 88% 30.02 in 10.0 mi SSE 8.1 mph - N/A   Overcast